User: anonymous   Login
Location: Unspecified
(0.0000°N, 0.0000°E)
Time: 07:48:02
(UTC+00:00)
Language:

AEHF-6 (USA 298) - Orbit

View from above orbital plane
View from above orbital plane
View from above satellite
View from above satellite

Ground track
Ground track

The orbit is defined by the following mean orbital elements,

1 45465U          26145.61091948 +.00000000 +00000-0 +00000-0 0 00003
2 45465   2.5974 300.8920 0044490  18.0860 281.9244  1.00269492    02
Epoch (UTC): 25 May 2026 14:39:43
Eccentricity: 0.0044490
inclination: 2.5974°
perigee height: 35600 km
apogee height: 35975 km
right ascension of ascending node: 300.8920°
argument of perigee: 18.0860°
revolutions per day: 1.00269492
mean anomaly at epoch: 281.9244°

The dashed part of the orbit path shows where the satellite is in the earth's shadow,  

DLR